[[{"header":{"parameterUnit":"m.s-1","parameterCategory":1,"la1":30.2991,"la2":30.254,"lo1":-89.0895,"lo2":-89.0444,"dy":0.0017,"dx":0.0017,"nx":28,"ny":28,"refTime":"2024-10-12T09:00:00:Z","depth":0,"parameterNumber":2,"parameterNumberName":"U-component_of_WINDS"},"data":[0,0,0,0,0,0,0,0,0,0,0,0,0,0,0,0,0,0,0,0,0,0,0,0,0,0,0,0,0,0,0,0,0,0,0,0,0,0,0,0,0,0,0,0,0,0,0,0,0,0,0,0,0,0,0,0,0,0,2.2583,2.2583,0,2.2621,2.2622,2.2622,2.2622,2.2622,2.2621,2.2621,2.2658,2.266,2.2661,0,0,0,0,0,0,0,0,0,0,0,0,0,2.2506,2.2508,2.2583,2.2583,2.2584,2.2621,2.2622,2.2622,2.2622,2.2622,2.2621,2.2621,2.2658,2.2659,2.2661,0,0,0,0,0,0,0,0,0,0,0,0,0,2.2542,2.2508,2.2583,2.2588,2.2589,2.2621,2.2622,2.2623,2.2623,2.2622,2.2621,2.262,2.2657,2.2659,2.2661,2.269,0,0,2.2668,2.2669,0,0,0,0,0,0,0,0,2.254,2.2544,2.2587,2.2588,2.2589,2.2616,2.2609,2.2645,2.2623,2.261,2.2621,2.262,2.2645,2.2648,2.2657,2.2692,2.2693,2.2668,2.267,2.2671,2.2671,0,0,0,0,0,0,0,2.2537,2.2543,2.2598,2.2587,2.2589,2.2588,2.2592,2.2616,2.2631,2.2611,2.2611,2.2616,2.2645,2.2655,2.2658,2.2694,2.2668,2.267,2.2672,2.2672,2.2754,2.2755,0,0,0,0,0,0,2.2534,2.2541,2.2597,2.2599,2.2562,2.259,2.2595,2.2608,2.2631,2.2633,2.2616,2.2616,2.2651,2.2655,2.2659,2.2694,2.2671,2.2673,2.2674,2.2753,2.2754,2.2755,0,0,0,0,0,0,2.2532,2.2539,2.2595,2.257,2.2577,2.2592,2.2607,2.2609,2.2619,2.2635,2.2637,2.2623,2.2651,2.2656,2.2682,2.2695,2.2674,2.2676,2.2752,2.2753,2.2754,2.2763,0,0,0,0,0,0,2.253,2.2538,2.255,2.257,2.2578,2.2619,2.2608,2.2611,2.2623,2.2622,2.2642,2.2645,2.2651,2.2679,2.2685,2.2698,2.2677,2.2751,2.2753,2.2754,2.2762,2.2765,2.2767,0,0,0,0,0,2.2527,2.255,2.255,2.2557,2.2593,2.2619,2.2624,2.2631,2.2624,2.2635,2.2645,2.2644,2.2693,2.2682,2.2688,2.2702,2.275,2.2752,2.2754,2.2761,2.2764,2.2767,0,0,0,0,0,0,2.253,2.2553,2.2553,2.2584,2.26,2.2619,2.2634,2.2634,2.2652,2.2651,2.2658,2.2663,2.2689,2.2698,2.2685,2.273,2.272,2.2724,2.2723,2.2727,2.2729,2.2726,2.2679,0,0,0,0,0,2.2534,2.2554,2.2573,2.2598,2.2606,2.2618,2.263,2.2634,2.2651,2.2657,2.2669,2.2685,2.2704,2.2716,2.2734,2.2763,2.2767,2.2776,2.2778,2.278,2.2783,2.2799,2.2803,2.2761,2.2761,2.2761,0,0,2.2543,2.2558,2.257,2.2599,2.2612,2.2631,2.2624,2.2645,2.266,2.266,2.2686,2.2696,2.2713,2.2741,2.2754,2.275,2.2795,2.2783,2.2784,2.2786,2.2801,2.2805,2.2809,2.2762,2.2762,2.2762,0,0,2.2569,2.2582,2.2605,2.2618,2.2638,2.2646,2.2651,2.2671,2.2678,2.2704,2.2705,2.2722,2.2754,2.2766,2.2777,2.2808,2.2807,2.2814,2.2827,2.2842,2.2846,2.2849,2.2859,2.2863,2.2816,2.2816,2.2816,0,2.2577,2.2607,2.2616,2.2637,2.265,2.2652,2.2674,2.2686,2.2711,2.2719,2.2714,2.2754,2.2766,2.2797,2.2805,2.2813,2.2819,2.2811,2.2845,2.2848,2.285,2.2861,2.2865,2.2817,2.2817,2.2817,2.2817,0,2.2616,2.2637,2.2653,2.2677,2.2692,2.2713,2.2724,2.2738,2.2741,2.2749,2.2776,2.279,2.2812,2.2819,2.2822,2.285,2.2847,2.2843,2.2833,2.2855,2.2865,2.2869,2.2818,2.2818,2.2817,2.2817,0,0,2.2644,2.2674,2.2679,2.269,2.2713,2.2729,2.275,2.2772,2.2783,2.28,2.2818,2.2845,2.2842,2.2854,2.2858,2.2872,2.2895,2.2866,2.2867,2.2871,2.2927,2.2929,2.2934,2.2895,2.2895,2.2896,2.2925,0,2.2672,2.2712,2.272,2.2754,2.2773,2.2776,2.2795,2.281,2.2818,2.2836,2.2845,2.2864,2.2858,2.2866,2.2879,2.2889,2.2906,2.2887,2.2911,2.2911,2.2906,2.2939,2.2942,2.2968,2.2929,2.293,2.293,0,2.2711,2.2729,2.2765,2.2785,2.2793,2.281,2.2831,2.2847,2.2864,2.287,2.2883,2.2886,2.2908,2.2897,2.2927,2.2914,2.2924,2.2931,2.2932,2.2934,2.2922,2.2941,2.2977,2.2981,2.2936,2.2936,2.2935,0,2.2727,2.2761,2.2787,2.2797,2.282,2.2832,2.2842,2.2859,2.2871,2.2889,2.2897,2.2916,2.2927,2.2942,2.2949,2.2941,2.2978,2.2969,2.2983,2.2983,2.299,2.299,2.3027,2.2997,2.2997,2.2997,2.2997,0,2.2758,2.2779,2.2795,2.2811,2.2835,2.2844,2.2868,2.2878,2.2893,2.291,2.2913,2.2929,2.2938,2.2955,2.2962,2.2985,2.299,2.2994,2.2995,2.2994,2.2993,2.3,2.2998,2.2998,2.2998,2.2998,2.2998,0,2.278,2.2792,2.282,2.2841,2.2846,2.2863,2.288,2.2895,2.2904,2.2926,2.2932,2.2945,2.2965,2.2975,2.3,2.3004,2.303,2.3031,2.3025,2.3025,2.3039,2.3037,2.3082,2.3088,2.3055,2.3055,2.3055,0,2.2799,2.2816,2.2838,2.2851,2.2861,2.2881,2.2894,2.2903,2.2916,2.2937,2.295,2.297,2.2987,2.302,2.3031,2.305,2.305,2.3065,2.3053,2.3051,2.305,2.3049,2.305,2.3067,2.3067,2.3067,2.3068,0,2.283,2.2835,2.2854,2.2875,2.2891,2.2908,2.2924,2.2934,2.2945,2.296,2.2981,2.2994,2.302,2.304,2.306,2.307,2.307,2.3071,2.3076,2.3074,2.307,2.3072,2.303,2.307,2.307,2.307,2.307,2.3069,2.2851,2.2867,2.2885,2.2906,2.2919,2.2935,2.295,2.2961,2.2979,2.3001,2.3006,2.3028,2.3044,2.3071,2.3082,2.3099,2.3095,2.3101,2.3103,2.3104,2.3105,2.3067,2.3102,2.3102,2.3102,2.3102,2.3102,0,2.2883,2.2895,2.2914,2.2937,2.2954,2.2954,2.2972,2.2985,2.3005,2.3021,2.3038,2.3062,2.3082,2.3095,2.3115,2.3126,2.3127,2.3131,2.313,2.3132,2.3107,2.3101,2.313,2.313,2.313,2.313,2.313,2.313,2.2901,2.2927,2.2934,2.2966,2.2978,2.3001,2.3011,2.3025,2.3037,2.3064,2.3081,2.309,2.3104,2.3125,2.3143,2.3146,2.3153,2.3157,2.316,2.3137,2.3134,2.3131,2.3126,2.3159,2.3159,2.3184,2.3184,2.3184]},{"header":{"parameterUnit":"m.s-1","parameterCategory":1,"la1":30.2991,"la2":30.254,"lo1":-89.0895,"lo2":-89.0444,"dy":0.0017,"dx":0.0017,"nx":28,"ny":28,"refTime":"2024-10-12T09:00:00:Z","depth":0,"parameterNumber":3,"parameterNumberName":"V-component_of_WINDS"},"data":[0,0,0,0,0,0,0,0,0,0,0,0,0,0,0,0,0,0,0,0,0,0,0,0,0,0,0,0,0,0,0,0,0,0,0,0,0,0,0,0,0,0,0,0,0,0,0,0,0,0,0,0,0,0,0,0,0,0,-0.221,-0.221,0,-0.2224,-0.2224,-0.2225,-0.2217,-0.2216,-0.2216,-0.2216,-0.2231,-0.2232,-0.2232,0,0,0,0,0,0,0,0,0,0,0,0,0,-0.2179,-0.2179,-0.221,-0.221,-0.2211,-0.2224,-0.2224,-0.2225,-0.2217,-0.2216,-0.2216,-0.2215,-0.2231,-0.2232,-0.2232,0,0,0,0,0,0,0,0,0,0,0,0,0,-0.2193,-0.218,-0.221,-0.2208,-0.2208,-0.2224,-0.2224,-0.2225,-0.2217,-0.2216,-0.2216,-0.2215,-0.223,-0.2231,-0.2233,-0.2251,0,0,-0.2236,-0.2237,0,0,0,0,0,0,0,0,-0.2192,-0.2194,-0.2208,-0.2209,-0.2209,-0.2218,-0.2219,-0.2234,-0.2217,-0.2214,-0.2216,-0.2215,-0.2227,-0.2229,-0.2232,-0.2252,-0.2253,-0.2236,-0.2237,-0.2237,-0.2238,0,0,0,0,0,0,0,-0.2191,-0.2193,-0.2216,-0.2209,-0.2209,-0.2207,-0.2209,-0.2222,-0.2224,-0.2214,-0.2213,-0.2215,-0.2227,-0.2231,-0.2233,-0.2253,-0.2236,-0.2237,-0.2238,-0.2238,-0.229,-0.229,0,0,0,0,0,0,-0.219,-0.2192,-0.2215,-0.2216,-0.2199,-0.2208,-0.221,-0.2216,-0.2223,-0.2224,-0.2216,-0.2215,-0.223,-0.2231,-0.2233,-0.2256,-0.2237,-0.2238,-0.2239,-0.2289,-0.229,-0.2291,0,0,0,0,0,0,-0.2189,-0.2192,-0.2215,-0.2204,-0.2207,-0.221,-0.2216,-0.2216,-0.222,-0.2225,-0.2225,-0.222,-0.2229,-0.2232,-0.2247,-0.2257,-0.2239,-0.224,-0.2288,-0.2289,-0.229,-0.2302,0,0,0,0,0,0,-0.2188,-0.2192,-0.2198,-0.2204,-0.2208,-0.2228,-0.2217,-0.2217,-0.2222,-0.2221,-0.2228,-0.2229,-0.2229,-0.2245,-0.2248,-0.2258,-0.2241,-0.2287,-0.2289,-0.229,-0.2301,-0.2304,-0.2306,0,0,0,0,0,-0.2187,-0.2201,-0.2199,-0.2202,-0.2216,-0.2228,-0.223,-0.223,-0.2223,-0.223,-0.2233,-0.2229,-0.2255,-0.2247,-0.225,-0.226,-0.2287,-0.2288,-0.229,-0.23,-0.2303,-0.2306,0,0,0,0,0,0,-0.2196,-0.2202,-0.2199,-0.2215,-0.2222,-0.2227,-0.2236,-0.2233,-0.2241,-0.224,-0.2239,-0.2241,-0.2257,-0.226,-0.2251,-0.228,-0.227,-0.2272,-0.2277,-0.228,-0.2282,-0.2281,-0.2242,0,0,0,0,0,-0.22,-0.2209,-0.2214,-0.2228,-0.2231,-0.2233,-0.2238,-0.2238,-0.2244,-0.2247,-0.225,-0.2257,-0.2267,-0.2274,-0.2283,-0.2302,-0.2304,-0.231,-0.2313,-0.2315,-0.2317,-0.2328,-0.2331,-0.2296,-0.2296,-0.2296,0,0,-0.2208,-0.2212,-0.2218,-0.223,-0.2234,-0.2245,-0.2235,-0.2246,-0.2254,-0.2248,-0.2263,-0.2266,-0.2274,-0.2291,-0.2299,-0.2295,-0.2327,-0.2317,-0.2318,-0.2319,-0.233,-0.2333,-0.2336,-0.2297,-0.2297,-0.2296,0,0,-0.2228,-0.2232,-0.2244,-0.2249,-0.2257,-0.2258,-0.2261,-0.2267,-0.2269,-0.2284,-0.228,-0.229,-0.2307,-0.2313,-0.2318,-0.2342,-0.2338,-0.2345,-0.2357,-0.2368,-0.2371,-0.2373,-0.2382,-0.2385,-0.2347,-0.2347,-0.2347,0,-0.2237,-0.2252,-0.2251,-0.2263,-0.2268,-0.2264,-0.2277,-0.2282,-0.2292,-0.2296,-0.2291,-0.2313,-0.2317,-0.2337,-0.2342,-0.2347,-0.2351,-0.2344,-0.237,-0.2373,-0.2375,-0.2384,-0.2387,-0.2347,-0.2347,-0.2347,-0.2347,0,-0.2264,-0.2274,-0.2283,-0.2293,-0.23,-0.2312,-0.2314,-0.2321,-0.232,-0.2322,-0.2338,-0.2343,-0.2354,-0.2359,-0.2358,-0.2378,-0.2375,-0.237,-0.2361,-0.2379,-0.2387,-0.239,-0.2348,-0.2348,-0.2348,-0.2348,0,0,-0.2289,-0.2299,-0.2302,-0.2307,-0.2315,-0.2323,-0.2336,-0.2346,-0.2353,-0.236,-0.2371,-0.2386,-0.2382,-0.2388,-0.2388,-0.2397,-0.2416,-0.2391,-0.2391,-0.2396,-0.244,-0.2444,-0.2448,-0.2414,-0.2415,-0.2416,-0.244,0,-0.231,-0.2331,-0.2331,-0.2351,-0.2362,-0.2358,-0.2369,-0.2376,-0.2379,-0.2388,-0.2391,-0.2402,-0.2395,-0.2399,-0.2408,-0.2412,-0.2425,-0.241,-0.2425,-0.2426,-0.2423,-0.2452,-0.2456,-0.2478,-0.2443,-0.2443,-0.2444,0,-0.2337,-0.2345,-0.2366,-0.2374,-0.2378,-0.2388,-0.2398,-0.2407,-0.2415,-0.2416,-0.2424,-0.2422,-0.2436,-0.2426,-0.2446,-0.2435,-0.2442,-0.2445,-0.2446,-0.2447,-0.2436,-0.2454,-0.2485,-0.2489,-0.2449,-0.2448,-0.2448,0,-0.2354,-0.237,-0.2385,-0.2389,-0.2398,-0.2406,-0.241,-0.2417,-0.2424,-0.2433,-0.2437,-0.2448,-0.2454,-0.2463,-0.2465,-0.2457,-0.2484,-0.2475,-0.2487,-0.2487,-0.2492,-0.2492,-0.2525,-0.2496,-0.2496,-0.2496,-0.2496,0,-0.2377,-0.239,-0.2393,-0.2402,-0.2417,-0.2418,-0.2433,-0.2437,-0.2443,-0.2454,-0.2452,-0.2462,-0.2464,-0.2474,-0.2476,-0.2492,-0.2495,-0.2497,-0.2497,-0.2497,-0.2497,-0.2501,-0.25,-0.2497,-0.2497,-0.2496,-0.2496,0,-0.2398,-0.2401,-0.2417,-0.2424,-0.2427,-0.2437,-0.2444,-0.2454,-0.2456,-0.247,-0.2473,-0.2478,-0.249,-0.2493,-0.2508,-0.2509,-0.2529,-0.2527,-0.2526,-0.2526,-0.2538,-0.2537,-0.2575,-0.258,-0.2548,-0.2548,-0.2548,0,-0.2413,-0.2423,-0.2432,-0.2439,-0.2443,-0.2454,-0.2461,-0.2462,-0.247,-0.248,-0.2488,-0.2501,-0.2511,-0.2531,-0.2536,-0.2548,-0.2547,-0.256,-0.2549,-0.2549,-0.2548,-0.2547,-0.2549,-0.2562,-0.2562,-0.2562,-0.2563,0,-0.2439,-0.244,-0.245,-0.2461,-0.2469,-0.2477,-0.2485,-0.2491,-0.2494,-0.2502,-0.2515,-0.2523,-0.2538,-0.2551,-0.2563,-0.2568,-0.2566,-0.2566,-0.2569,-0.257,-0.2569,-0.257,-0.2532,-0.2565,-0.2565,-0.2565,-0.2564,-0.2564,-0.2458,-0.2467,-0.2475,-0.2486,-0.2493,-0.25,-0.251,-0.2514,-0.2525,-0.2537,-0.2537,-0.2552,-0.2561,-0.2576,-0.2582,-0.2594,-0.259,-0.2595,-0.2596,-0.2597,-0.2599,-0.2567,-0.2596,-0.2596,-0.2596,-0.2596,-0.2596,0,-0.2484,-0.2489,-0.25,-0.2511,-0.2521,-0.2518,-0.2527,-0.2535,-0.2547,-0.2556,-0.2566,-0.2581,-0.2593,-0.26,-0.2612,-0.262,-0.262,-0.2624,-0.2623,-0.2625,-0.2601,-0.2597,-0.2624,-0.2624,-0.2624,-0.2624,-0.2624,-0.2624,-0.2499,-0.2515,-0.2517,-0.2536,-0.2541,-0.2555,-0.256,-0.2568,-0.2575,-0.2592,-0.2602,-0.2606,-0.2614,-0.2627,-0.2639,-0.2641,-0.2645,-0.265,-0.2651,-0.2629,-0.2626,-0.2623,-0.262,-0.2651,-0.2651,-0.2674,-0.2674,-0.2674]}]]